Photometre #853[NE_1.6_Dp] Stornoway_MO AOT

File : 20220924_853.hum

24/09/2022,07:21:10,TEMP=10.3,BA=5.72,STAT.A,ExtBa=12.40
24/09/2022,07:26:09,TEMP=10.5,BA=5.72,STAT.A,ExtBa=12.40
24/09/2022,07:32:01,TEMP=10.7,BA=5.72,STAT.A,ExtBa=12.40
24/09/2022,07:39:01,TEMP=10.8,BA=5.72,STAT.A,ExtBa=12.40
24/09/2022,07:47:30,TEMP=10.9,BA=5.64,STAT.A,ExtBa=12.40
24/09/2022,07:58:04,TEMP=11.0,BA=5.72,STAT.A,ExtBa=12.40
24/09/2022,08:11:37,TEMP=11.1,BA=5.72,STAT.B,ExtBa=12.40
24/09/2022,08:18:11,TEMP=11.3,BA=5.72,STAT.A,ExtBa=12.40
24/09/2022,08:25:36,TEMP=11.4,BA=5.68,STAT.A,ExtBa=12.40
24/09/2022,08:34:05,TEMP=11.6,BA=5.72,STAT.A,ExtBa=12.40
24/09/2022,08:43:53,TEMP=11.8,BA=5.72,STAT.A,ExtBa=12.40
24/09/2022,08:55:23,TEMP=12.0,BA=5.72,STAT.C,ExtBa=12.40
24/09/2022,09:08:25,TEMP=12.4,BA=5.72,STAT.D,ExtBa=12.40
24/09/2022,09:10:26,TEMP=12.9,BA=5.60,STAT.A,ExtBa=12.40
24/09/2022,09:17:31,TEMP=13.0,BA=5.60,STAT.F,ExtBa=12.40
24/09/2022,09:28:25,TEMP=13.5,BA=5.72,STAT.D,ExtBa=12.40
24/09/2022,09:32:30,TEMP=13.9,BA=5.60,STAT.D,ExtBa=12.40
24/09/2022,09:36:25,TEMP=14.6,BA=5.60,STAT.D,ExtBa=12.40
24/09/2022,09:40:25,TEMP=15.2,BA=5.72,STAT.D,ExtBa=12.40
24/09/2022,09:47:30,TEMP=15.4,BA=5.72,STAT.D,ExtBa=12.40
24/09/2022,10:00:25,TEMP=15.4,BA=5.72,STAT.D,ExtBa=12.40
24/09/2022,10:02:30,TEMP=15.9,BA=5.72,STAT.D,ExtBa=12.40
24/09/2022,10:08:25,TEMP=15.7,BA=5.72,STAT.D,ExtBa=12.40
24/09/2022,10:17:32,TEMP=15.6,BA=5.68,STAT.F,ExtBa=12.40
24/09/2022,10:24:25,TEMP=15.2,BA=5.72,STAT.D,ExtBa=12.40
24/09/2022,10:32:30,TEMP=14.5,BA=5.72,STAT.D,ExtBa=12.40
24/09/2022,10:44:25,TEMP=13.9,BA=5.72,STAT.D,ExtBa=12.40
24/09/2022,10:47:30,TEMP=14.0,BA=5.72,STAT.D,ExtBa=12.40
24/09/2022,11:00:25,TEMP=12.7,BA=5.72,STAT.D,ExtBa=12.40
24/09/2022,11:02:30,TEMP=12.9,BA=5.72,STAT.D,ExtBa=12.40
24/09/2022,11:16:25,TEMP=13.0,BA=5.72,STAT.D,ExtBa=12.40
24/09/2022,11:18:50,TEMP=13.6,BA=5.72,STAT.F,ExtBa=12.40
24/09/2022,11:32:25,TEMP=14.4,BA=5.72,STAT.D,ExtBa=12.40
24/09/2022,11:34:23,TEMP=14.9,BA=5.72,STAT.D,ExtBa=12.40
24/09/2022,11:47:30,TEMP=15.3,BA=5.72,STAT.D,ExtBa=12.40
24/09/2022,11:52:25,TEMP=15.6,BA=5.68,STAT.D,ExtBa=12.40
24/09/2022,11:56:25,TEMP=15.6,BA=5.68,STAT.D,ExtBa=12.40
24/09/2022,12:02:30,TEMP=15.5,BA=5.72,STAT.D,ExtBa=12.40
24/09/2022,12:16:25,TEMP=15.5,BA=5.68,STAT.D,ExtBa=12.40
24/09/2022,12:18:23,TEMP=15.9,BA=5.68,STAT.F,ExtBa=12.40
24/09/2022,12:32:25,TEMP=15.1,BA=5.68,STAT.D,ExtBa=12.40
24/09/2022,12:34:21,TEMP=15.4,BA=5.68,STAT.D,ExtBa=12.40
24/09/2022,12:47:30,TEMP=14.5,BA=5.68,STAT.D,ExtBa=12.40
24/09/2022,13:00:25,TEMP=14.1,BA=5.68,STAT.D,ExtBa=12.40
24/09/2022,13:02:30,TEMP=14.4,BA=5.68,STAT.D,ExtBa=12.40
24/09/2022,13:16:25,TEMP=14.1,BA=5.68,STAT.D,ExtBa=12.40
24/09/2022,13:18:25,TEMP=14.5,BA=5.68,STAT.F,ExtBa=12.40
24/09/2022,13:32:25,TEMP=14.7,BA=5.68,STAT.D,ExtBa=12.40
24/09/2022,13:34:22,TEMP=15.1,BA=5.68,STAT.D,ExtBa=12.40
24/09/2022,13:47:30,TEMP=14.6,BA=5.72,STAT.D,ExtBa=12.40
24/09/2022,14:00:25,TEMP=14.5,BA=5.68,STAT.D,ExtBa=12.40
24/09/2022,14:02:30,TEMP=14.8,BA=5.68,STAT.D,ExtBa=12.40
24/09/2022,14:16:25,TEMP=14.2,BA=5.72,STAT.D,ExtBa=12.40
24/09/2022,14:18:24,TEMP=14.5,BA=5.72,STAT.F,ExtBa=12.40
24/09/2022,14:32:25,TEMP=14.1,BA=5.72,STAT.D,ExtBa=12.40
24/09/2022,14:34:23,TEMP=14.5,BA=5.72,STAT.D,ExtBa=12.40
24/09/2022,14:47:30,TEMP=13.9,BA=5.72,STAT.D,ExtBa=12.40
24/09/2022,15:00:25,TEMP=13.8,BA=5.72,STAT.D,ExtBa=12.40
24/09/2022,15:02:30,TEMP=14.1,BA=5.72,STAT.D,ExtBa=12.40
24/09/2022,15:16:25,TEMP=13.4,BA=5.68,STAT.D,ExtBa=12.40
24/09/2022,15:18:24,TEMP=13.8,BA=5.68,STAT.F,ExtBa=12.40
24/09/2022,15:25:54,TEMP=13.3,BA=5.68,STAT.A,ExtBa=12.40
24/09/2022,15:39:39,TEMP=12.9,BA=5.72,STAT.C,ExtBa=12.40
24/09/2022,15:51:09,TEMP=12.8,BA=5.72,STAT.A,ExtBa=12.40
24/09/2022,16:00:57,TEMP=12.7,BA=5.72,STAT.A,ExtBa=12.40
24/09/2022,16:09:26,TEMP=12.6,BA=5.72,STAT.A,ExtBa=12.40
24/09/2022,16:16:51,TEMP=12.6,BA=5.60,STAT.A,ExtBa=12.40
24/09/2022,16:23:25,TEMP=12.6,BA=5.72,STAT.B,ExtBa=12.40
24/09/2022,16:36:24,TEMP=12.5,BA=5.72,STAT.D,ExtBa=12.40
24/09/2022,16:38:23,TEMP=12.9,BA=5.72,STAT.A,ExtBa=12.40
24/09/2022,16:47:32,TEMP=12.6,BA=5.56,STAT.A,ExtBa=12.40
24/09/2022,16:56:01,TEMP=12.6,BA=5.68,STAT.A,ExtBa=12.40
24/09/2022,17:03:01,TEMP=12.6,BA=5.72,STAT.A,ExtBa=12.40
24/09/2022,17:08:53,TEMP=12.5,BA=5.72,STAT.A,ExtBa=12.40
24/09/2022,17:13:52,TEMP=12.5,BA=5.60,STAT.A,ExtBa=12.40